Location: West Cummington
(42.4920°N, 72.9680°W)
Time: 19:48:06
(UTC-05:00)

Daily predictions for brighter satellites

Satellite Brightness Start Highest point End
(mag) Time Altitude Azimuth Time Altitude Azimuth Time Altitude Azimuth
Cosmos 2237 Rocket 3.9 17:12:32 10° ESE 17:14:51 13° E 17:17:10 10° ENE
Cosmos 1674 3.4 17:12:23 10° SSE 17:15:48 33° E 17:19:16 10° NNE
Hubble Space Telescope 3.5 17:18:34 10° SSW 17:20:01 12° S 17:21:27 10° SSE
BREEZE-M DEB (TANK) 3.4 17:16:57 10° WNW 17:21:27 68° SW 17:26:46 10° SE
Lacrosse 5 2.7 17:17:41 10° WSW 17:22:35 45° NW 17:27:29 10° NE
CZ-2C R/B 2.6 17:17:33 10° S 17:22:37 82° WSW 17:27:33 10° NNW
Cosmos 1743 Rocket 4.3 17:19:57 10° SSE 17:23:57 34° E 17:28:00 10° NNE
AQUARIUS 4.2 17:20:03 10° SSE 17:24:33 87° WSW 17:29:04 10° NNW
CZ-4 R/B 4.4 17:22:07 10° SSE 17:26:13 64° ENE 17:30:20 10° N
Cosmos 1763 Rocket 3.9 17:21:19 10° S 17:26:17 44° ESE 17:31:12 10° NNE
Cosmos 1300 4.2 17:25:32 10° NNE 17:28:07 17° ENE 17:30:41 10° ESE
Abrixas rocket 2.3 17:24:52 10° WNW 17:28:11 79° SSW 17:31:31 10° ESE
Cosmos 1634 Rocket 4.4 17:23:05 10° N 17:28:51 38° ENE 17:34:31 10° SE
Cosmos 1328 Rocket 3.9 17:27:04 10° N 17:31:21 45° ENE 17:35:35 10° SSE
Cosmos 2322 4.0 17:28:30 10° SSW 17:34:09 74° WNW 17:39:53 10° NNE
Cosmos 1515 Rocket 4.1 17:31:34 10° N 17:35:45 37° ENE 17:39:53 10° SE
SKYMED 2 4.0 17:32:55 10° NNE 17:37:04 42° E 17:41:11 10° S
SMAP 3.7 17:35:06 10° S 17:39:41 61° W 17:44:19 10° NNW
SPOT 3 Rocket 3.9 17:34:39 10° S 17:39:47 72° WSW 17:44:57 10° NNW
Thor Agena Rocket 3.7 17:35:55 10° NNE 17:41:13 84° WNW 17:46:25 10° SSW
Cosmos 1726 3.2 17:39:19 10° NNE 17:42:27 24° ENE 17:45:35 10° SE
Cosmos 2150 Rocket 4.4 17:37:33 10° NNW 17:42:46 70° WSW 17:47:52 10° S
SL-16 R/B 4.1 17:38:29 10° WSW 17:43:07 25° NW 17:47:46 10° N
Cosmos 2263 Rocket 4.4 17:39:55 10° NW 17:44:45 30° WSW 17:49:33 10° SSW
Meteor 1-21 Rocket 4.4 17:39:37 10° S 17:45:33 89° E 17:51:28 10° N
COSMOS 2441 4.4 17:41:14 10° SSE 17:46:07 87° WSW 17:51:00 10° NNW
Molniya-1 4.1 17:45:01 10° SSW 17:47:34 51° ESE 17:51:03 14° NE
SJ-6B 3.9 17:44:54 10° ESE 17:48:12 25° ENE 17:51:34 10° NNE
Cosmos 2333 4.2 17:43:03 10° SSW 17:48:36 66° ESE 17:54:10 10° NNE
USA 215 3.2 17:43:18 10° ESE 17:49:51 78° NE 17:56:25 10° NW
Atlas Centaur 2 4.0 17:47:27 10° SW 17:50:20 15° SSW 17:52:56 10° SSE
Cosmos 1844 Rocket 2.6 17:44:58 10° NNW 17:50:39 69° ENE 17:56:16 10° SSE
IDEFIX/ARIANE 42P 3.9 17:46:38 10° S 17:51:36 44° W 17:56:36 10° NNW
Cosmos 1500 Rocket 3.8 17:47:32 10° SSE 17:51:40 47° E 17:55:51 10° NNE
Cosmos 2151 3.8 17:48:42 10° SSE 17:52:21 29° E 17:55:42 12° NNE
Cosmos 540 Rocket 4.4 17:48:45 10° SSE 17:53:02 27° E 17:56:01 16° NE
Meteor 1-28 Rocket 3.6 17:50:23 10° NNE 17:53:55 41° E 17:57:26 10° S
Cosmos 1151 Rocket 3.4 17:50:13 10° N 17:54:14 39° ENE 17:58:14 10° SSE
Cosmos 1814 Rocket 4.4 17:50:16 10° SSW 17:55:34 68° WNW 18:00:56 10° NNE
Cosmos 1125 Rocket 3.9 17:50:43 10° N 17:55:36 39° ENE 18:00:27 10° SE
Cosmos 1980 4.3 17:55:58 10° S 18:01:04 35° ESE 18:04:39 18° NE
Cosmos 2360 Rocket 3.4 17:56:55 10° SW 18:02:10 40° WNW 18:07:28 10° NNE
Cosmos 990 Rocket 4.4 17:58:07 10° NNW 18:03:21 67° WSW 18:08:33 10° S
Resurs 01 Rocket 2.8 18:07:54 23° NE 18:07:54 23° NE 18:10:54 10° NNE
OTV 4 1.7 18:05:04 10° WSW 18:07:47 33° S 18:09:01 23° SE
Cosmos 2333 Rocket 2.4 18:03:23 10° S 18:08:46 48° ESE 18:12:50 17° NE
Spot 2 Rocket 4.3 18:05:39 10° ESE 18:09:52 27° ENE 18:14:06 10° N
NOSS 0 Rocket 4.2 18:04:53 10° S 18:10:49 49° ESE 18:15:20 17° NE
Meteor 1-27 4.5 18:08:34 10° N 18:14:10 48° ENE 18:19:47 10° SSE
Cosmos 841 Rocket 3.7 18:12:51 10° SSW 18:18:07 76° WNW 18:23:25 10° NNE
Cosmos 1340 Rocket 3.8 18:15:44 10° SSE 18:18:20 27° ESE 18:18:20 27° ESE
FENGYUN 3A 4.1 18:17:32 10° SE 18:22:25 37° ENE 18:27:19 10° N
Cosmos 2228 Rocket 4.2 18:19:06 10° NNW 18:23:18 45° W 18:27:31 10° SSW
Cosmos 2279 Rocket 3.9 18:17:37 10° N 18:23:46 60° E 18:29:55 10° SSE
COSMO-SKYMED 1 3.2 18:20:50 10° N 18:25:07 56° WNW 18:29:21 10° SSW
Cosmos 332 Rocket 4.1 18:24:45 10° SSW 18:29:32 68° WNW 18:33:55 13° NNE
Cosmos 2219 Rocket 2.1 18:24:48 10° SSW 18:30:27 88° WNW 18:34:56 17° NNE
Cosmos 2278 Rocket 2.1 18:26:01 10° NNW 18:31:42 66° ENE 18:37:20 10° SE
SL-14 R/B 3.1 18:29:15 10° S 18:33:08 86° E 18:35:26 24° N
BREEZE M DEB (TANK) 2.5 18:31:21 10° WNW 18:33:08 34° NW 18:33:08 34° NW
Aureole 2 Rocket 4.5 18:31:48 10° SSE 18:32:50 17° SSE 18:32:50 17° SSE
Cosmos 2180 Rocket 4.4 18:31:11 10° N 18:37:19 63° E 18:43:26 10° SSE
CENTAUR R/B 3.2 18:32:29 10° WSW 18:38:29 53° NW 18:43:56 16° NNE
Cosmos 2084 3.0 18:35:24 10° SSW 18:39:17 73° SE 18:39:29 71° E
Milstar 3 4.5 18:34:25 10° WSW 18:39:33 23° S 18:45:23 10° SE
METEOR-M 4.1 18:34:27 10° SSE 18:39:48 84° WSW 18:45:12 10° NNW
Cosmos 1844 4.2 18:35:46 10° NNW 18:41:28 63° WSW 18:47:10 10° S
Meteor 2-10 3.8 18:40:26 10° N 18:45:31 85° E 18:50:41 10° S
Nadezhda 4 Rocket 4.2 18:39:44 10° SSE 18:45:34 44° E 18:46:58 39° ENE
COSMOS 2428 4.0 18:44:01 10° SW 18:49:16 37° WNW 18:54:34 10° N
Lacrosse 5 rocket 2.7 18:48:59 10° NNW 18:51:00 26° NNW 18:51:00 26° NNW
ALOS 2.1 18:48:54 10° SSE 18:53:33 72° ENE 18:58:13 10° N
DNEPR-1 R/B 4.5 18:48:56 10° SW 18:55:54 79° WNW 18:58:32 36° NNE
Cosmos 2237 Rocket 2.1 18:52:25 10° SSW 18:58:03 87° WNW 19:00:18 38° NNE
Cosmos 44 3.3 18:55:11 10° SSW 19:00:28 83° ESE 19:01:01 71° NE
SL-19 R/B 4.4 18:54:57 10° SSE 19:01:02 83° WSW 19:06:46 10° NNW
Cosmos 371 Rocket 4.2 18:56:25 10° SW 19:01:02 46° WNW 19:03:53 22° N
SL-16 R/B 3.0 18:55:52 10° S 18:59:32 35° SSE 18:59:32 35° SSE
Cosmos 1300 4.5 19:00:29 10° NNW 19:03:56 32° W 19:07:21 10° SSW
Lacrosse 5 3.8 19:03:13 10° WNW 19:06:42 18° NNW 19:07:33 17° N
Cosmos 2297 3.8 19:02:36 10° NNW 19:07:32 57° NNE 19:07:32 57° NNE
Cosmos 2058 4.1 19:10:37 10° SSW 19:14:31 41° WNW 19:15:33 34° NW
Cosmos 372 Rocket 4.5 19:12:13 10° NNW 19:17:13 57° WSW 19:21:03 17° S
Cosmos 44 Rocket 4.2 19:14:37 10° SW 19:19:32 46° NW 19:20:28 41° NNW
Cosmos 1805 Rocket 4.5 19:16:58 10° SSW 19:20:12 44° SW 19:20:12 44° SW
Resurs 01 Rocket 3.6 19:45:27 25° NW 19:45:27 25° NW 19:47:46 10° NNW
H-2A ROCKET BODY 4.1 19:36:42 10° WSW 19:48:10 26° SSW 19:49:07 25° S
Cosmos 2333 Rocket 3.9 19:48:32 10° WSW 19:53:17 27° NW 19:54:55 24° NNW
